Cloud_Cover
84 100 100 100 100 100 100 100 100 100 100 95 100 100 100 100 100 100 100 100 100 100 100 100 100 100 100 100 100 100 100 84 32 77 76 95 44 82 100 100 40 57 68 100
77 100 100 100 100 100 100 100 100 100 100 100 95 100 100 100 100 100 100 100 100 100 100 100 100 100 100 97 100 100 97 73 97 83 22 5 13 46 76 4 49 62 62 2
100 100 100 100 100 100 100 100 100 100 100 100 100 100 100 100 100 100 100 100 100 100 100 100 100 81 61 97 100 100 100 41 98 78 24 47 80 57 5 14 61 71 5 5
100 100 100 100 100 100 100 100 100 100 100 100 100 100 100 100 91 94 100 100 100 65 13 21 24 70 100 100 100 80 56 55 9 5 5 5 5 82 38 5 14 5 5 15
100 100 100 100 100 100 100 100 100 100 100 100 100 94 100 85 37 63 23 5 5 12 64 63 24 52 64 4 7 78 14 5 5 5 5 5 5 5 5 10 17 16 35 7
99 86 100 100 100 95 100 90 61 91 100 100 83 100 100 73 29 52 16 37 14 4 2 26 16 2 0 2 5 25 5 6 2 5 5 5 5 5 10 76 5 47 56 38
100 100 100 90 89 100 99 90 100 100 100 32 44 1 7 88 14 4 1 0 0 0 3 0 0 0 0 4 5 7 5 5 1 2 5 5 5 5 44 36 76 70 73 42
100 100 100 100 84 85 100 100 100 90 100 46 14 5 22 4 2 0 0 0 1 0 0 0 0 0 3 5 5 5 5 0 0 2 5 21 50 25 59 94 60 68 95 100
100 100 90 19 100 100 100 86 3 0 5 5 4 11 2 0 0 0 0 0 0 0 0 0 0 0 1 5 5 5 6 21 32 5 5 5 5 43 100 60 14 82 59 5
97 100 100 100 100 95 20 3 5 5 4 0 86 1 72 0 0 0 0 0 0 0 0 0 1 5 5 5 10 14 27 40 5 5 5 9 65 100 62 5 42 99 28 7
17 43 91 66 5 16 5 0 0 1 1 0 1 15 0 0 0 0 0 5 1 1 5 5 5 5 5 15 19 5 5 5 5 5 10 32 90 100 44 14 97 60 5 5
2 4 5 2 2 5 5 4 5 0 0 0 0 0 0 0 0 0 5 5 5 5 5 15 13 5 5 25 15 5 5 5 42 92 62 94 100 37 15 62 87 5 5 5
0 0 4 6 0 0 0 0 0 0 0 0 25 0 0 0 0 0 1 5 5 5 5 6 29 23 18 11 5 5 10 40 36 100 64 100 100 99 74 29 15 6 5 5
0 0 5 5 70 10 0 0 0 1 0 0 0 0 0 0 0 0 2 5 5 5 2 7 28 30 5 5 5 39 68 99 98 88 91 100 85 53 57 88 64 9 6 9
0 0 1 0 0 0 0 2 5 5 1 5 0 5 0 4 29 8 5 4 3 5 2 23 100 37 5 13 18 7 22 95 100 99 100 91 96 98 94 95 99 45 77 92
0 0 0 0 0 0 5 5 5 0 5 5 5 10 0 4 5 5 5 5 5 0 5 71 96 8 5 9 5 43 54 96 100 100 100 100 100 100 100 99 100 100 98 56
0 0 0 0 3 5 5 5 0 3 5 2 5 30 5 7 5 3 3 5 5 0 5 6 5 5 21 8 53 62 73 100 100 100 100 100 100 100 100 100 100 100 100 100
0 0 3 7 5 54 5 2 3 5 5 4 5 5 5 5 5 5 5 5 3 5 58 20 5 5 42 60 52 63 96 100 100 100 100 98 100 100 100 100 100 100 100 100
4 2 5 20 5 44 5 5 5 5 4 2 5 4 4 5 5 5 5 4 2 5 10 5 5 56 74 50 88 100 99 100 100 100 100 100 100 100 100 100 100 100 100 100
5 5 8 5 66 65 38 5 5 5 0 19 6 2 5 5 5 0 0 22 9 5 5 7 34 19 49 53 40 98 91 95 100 100 100 100 100 100 100 100 100 100 100 100
5 43 38 5 35 5 12 5 5 5 22 5 5 5 5 5 5 59 100 58 5 9 61 53 7 26 43 79 98 100 100 100 100 100 100 100 100 100 100 98 100 100 100 100
5 6 41 6 63 63 22 47 55 23 9 19 19 5 5 5 76 100 63 5 52 68 98 93 97 99 94 90 100 100 100 100 93 100 100 100 100 100 100 100 100 100 100 100
5 6 5 5 5 6 5 5 5 19 9 5 5 5 5 99 95 10 5 46 87 47 58 100 100 69 83 100 100 100 100 100 100 100 100 100 100 100 100 100 100 100 100 100
5 5 5 6 14 5 5 5 5 5 5 6 9 26 80 26 5 18 86 11 30 78 81 35 94 100 100 100 100 100 100 100 100 100 100 100 100 100 100 100 100 100 100 100
5 5 5 38 6 5 5 7 60 71 15 5 5 5 7 5 6 65 7 54 65 23 72 100 100 100 100 100 100 100 100 100 100 100 100 100 100 100 100 100 100 100 100 61
24 5 5 5 71 95 100 92 16 4 21 83 5 5 5 5 32 12 24 78 99 100 100 99 100 100 100 100 100 100 100 100 100 100 100 100 100 100 100 100 100 100 76 12